Satellite: AEROCUB3
Catalog number: 35005
Epoch time:      10056.41717158
Element set:     230
Inclination:      040.4712 deg
RA of node:       161.0325 deg
Eccentricity:    0.0021303
Arg of perigee:   265.1901 deg
Mean anomaly:     094.6466 deg
Mean motion:   15.44386275 rev/day
Decay rate:     2.9768e-04 rev/day^2
Epoch rev:            4342
Checksum:              268

Satellite: DRAGNSAT
Catalog number: 35690
Epoch time:      10056.43471946
Element set:     281
Inclination:      051.6309 deg
RA of node:       063.5405 deg
Eccentricity:    0.0003752
Arg of perigee:   095.5220 deg
Mean anomaly:     264.6356 deg
Mean motion:   16.06351337 rev/day
Decay rate:    2.84500e-03 rev/day^2
Epoch rev:            3336
Checksum:              278

Satellite: POLLUX
Catalog number: 35693
Epoch time:      10056.49563741
Element set:     278
Inclination:      051.6368 deg
RA of node:       065.5335 deg
Eccentricity:    0.0010590
Arg of perigee:   120.8029 deg
Mean anomaly:     239.4073 deg
Mean motion:   16.01023167 rev/day
Decay rate:    1.14414e-03 rev/day^2
Epoch rev:            3331
Checksum:              273

Satellite: CASTOR
Catalog number: 35694
Epoch time:      10056.85685113
Element set:     206
Inclination:      051.6395 deg
RA of node:       069.6201 deg
Eccentricity:    0.0004559
Arg of perigee:   095.4438 deg
Mean anomaly:     264.7107 deg
Mean motion:   15.88223211 rev/day
Decay rate:     4.3127e-04 rev/day^2
Epoch rev:            3329
Checksum:              294

Satellite: METEOR-M
Catalog number: 35865
Epoch time:      10056.80626229
Element set:     136
Inclination:      098.7744 deg
RA of node:       111.3274 deg
Eccentricity:    0.0002260
Arg of perigee:   346.2069 deg
Mean anomaly:     013.8998 deg
Mean motion:   14.21828836 rev/day
Decay rate:       1.76e-06 rev/day^2
Epoch rev:            2289
Checksum:              308

Satellite: RS-38
Catalog number: 35869
Epoch time:      10056.22660443
Element set:     138
Inclination:      098.7741 deg
RA of node:       110.7730 deg
Eccentricity:    0.0004393
Arg of perigee:   339.9476 deg
Mean anomaly:     020.1485 deg
Mean motion:   14.21976080 rev/day
Decay rate:       1.76e-06 rev/day^2
Epoch rev:            2281
Checksum:              303

/EX


_______________________________________________
Via the Keps mailing list courtesy of AMSAT-NA
http://amsat.org/mailman/listinfo/keps

--- ViaMAIL!/WC v1.60d
 * Origin: Chowdanet (401-724-4410) telnet://chowdanet.com  (1:323/120)